User: anonymous   Login
Location: Unspecified
(0.0000°N, 0.0000°E)
Time: 12:21:11
(UTC+00:00)
Language:

USA 187 - Orbit

View from above orbital plane
View from above orbital plane
View from above satellite
View from above satellite

Ground track
Ground track

The orbit data is extracted from the following two-line orbital elements,

1 29240U 06024A   15261.34123595 0.00000000  00000-0  00000-0 0    09
2 29240   0.7151 294.3706 0011912 301.8102  58.0866  0.98613613    03
Epoch (UTC): 18 September 2015 08:11:22
Eccentricity: 0.0011912
inclination: 0.7151°
perigee height: 36207 km
apogee height: 36308 km
right ascension of ascending node: 294.3706°
argument of perigee: 301.8102°
revolutions per day: 0.98613613
mean anomaly at epoch: 58.0866°
orbit number at epoch: 0

The dashed part of the orbit path shows where the satellite is in the earth's shadow,  

DLR